Location: Poprad
(49.0500°N, 20.3000°E)
Time: 11:10:09
(UTC+01:00)

ISS - Pass Details

Date: 26 January 2021
Orbit: 417 x 422 km, 51.6° (Epoch: 07 March)

Event Time Altitude Azimuth Distance (km) Brightness Sun altitude
Rises 17:10:22 0° 252° (WSW) 2,366 2.7 -7.4°
Reaches altitude 10° 17:12:28 10° 254° (WSW) 1,504 0.8 -7.8°
Maximum altitude 17:15:51 81° 343° (NNW) 432 -3.7 -8.3°
Enters shadow 17:18:55 12° 70° (ENE) 1,379 -1.8 -8.8°
